Volver al catálogo

KUIPER-00085

ActivoComunicacionesLEO
NORAD 64831·PAYLOAD·🇺🇸 United States

Lanzado Jul 16, 2025 desde Cape Canaveral Space Force Station

Loading…

Próximos Pases (próximas 24 horas)

TLE

ActualizadoSource: CelesTrak SupGP

Época: Sep 14, 2026, 22:53 UTC

1 64831C 25151R   26257.95353009  .00001111  00000+0  14544-3 0  2573
2 64831  51.9017 171.2572 0000916  90.6416 243.5107 14.79924121    17

Sigue KUIPER-00085 en tiempo real con AllMySat

Download on the App Store